GW0309 Weather Reports


time (UTC)temp
C
wind
direction
speed
KPH
gust
KPH
rain 1hr
cm
rain 24hr
cm
rain mn
cm
humidity
%
barometer
mb
20260906165250 -17 153 1.6 3.2 0.00 0.00 0.00 1063.7
20260906164749 -17 289 4.8 4.8 0.00 0.00 0.00 1063.8
20260906164244 -17 143 1.6 4.8 0.00 0.00 0.00 1063.7
20260906163740 -17 170 4.8 4.8 0.00 0.00 0.00 1063.6
20260906163236 -17 136 1.6 4.8 0.00 0.00 0.00 1063.7
20260906162733 -17 49 1.6 4.8 0.00 0.00 0.00 1063.5
20260906162227 -17 163 3.2 3.2 0.00 0.00 0.00 1063.9
20260906161722 -17 71 3.2 4.8 0.00 0.00 0.00 1063.8
20260906161221 -17 146 0.0 3.2 0.00 0.00 0.00 1063.9
20260906160720 -17 127 0.0 1.6 0.00 0.00 0.00 1063.9
20260906160220 -17 95 1.6 3.2 0.00 0.00 0.00 1063.9
20260906155717 -17 150 0.0 3.2 0.00 0.00 0.00 1063.7
20260906155212 -17 100 4.8 4.8 0.00 0.00 0.00 1063.8
20260906154708 -17 199 3.2 3.2 0.00 0.00 0.00 1064.0
20260906154209 -17 152 1.6 3.2 0.00 0.00 0.00 1064.0
20260906153706 -17 138 1.6 3.2 0.00 0.00 0.00 1063.7
20260906153201 -17 136 0.0 8.0 0.00 0.00 0.00 1063.7
20260906152657 -17 143 3.2 9.7 0.00 0.00 0.00 1063.5
20260906152151 -17 136 3.2 3.2 0.00 0.00 0.00 1063.6
20260906151645 -17 164 6.4 9.7 0.00 0.00 0.00 1063.6
20260906151142 -17 175 8.0 8.0 0.00 0.00 0.00 1063.8
20260906150636 -17 137 1.6 1.6 0.00 0.00 0.00 1063.9
20260906150131 -17 52 3.2 4.8 0.00 0.00 0.00 1063.8
20260906145625 -17 127 0.0 3.2 0.00 0.00 0.00 1063.5
20260906145119 -17 123 1.6 3.2 0.00 0.00 0.00 1063.5
20260906144614 -17 165 4.8 8.0 0.00 0.00 0.00 1063.7
20260906144109 -17 178 4.8 8.0 0.00 0.00 0.00 1063.5
20260906143604 -17 165 6.4 9.7 0.00 0.00 0.00 1063.6
20260906143101 -17 117 0.0 8.0 0.00 0.00 0.00 1063.7
20260906142600 -17 139 3.2 4.8 0.00 0.00 0.00 1063.6
20260906142055 -17 151 3.2 4.8 0.00 0.00 0.00 1063.6
20260906141554 -17 107 1.6 3.2 0.00 0.00 0.00 1063.6
20260906141050 -17 126 1.6 3.2 0.00 0.00 0.00 1063.7
20260906140548 -17 127 1.6 3.2 0.00 0.00 0.00 1063.8
20260906140043 -17 116 1.6 4.8 0.00 0.00 0.00 1063.6
20260906135540 -17 88 1.6 3.2 0.00 0.00 0.00 1063.7
20260906135036 -17 93 1.6 1.6 0.00 0.00 0.00 1063.8
20260906134531 -17 98 0.0 1.6 0.00 0.00 0.00 1063.7
20260906134026 -17 139 0.0 3.2 0.00 0.00 0.00 1063.7
20260906133522 -17 130 1.6 4.8 0.00 0.00 0.00 1063.6
20260906133017 -17 111 1.6 3.2 0.00 0.00 0.00 1063.6
20260906132512 -17 134 1.6 4.8 0.00 0.00 0.00 1063.4
20260906132008 -17 127 0.0 3.2 0.00 0.00 0.00 1063.6
20260906131503 -17 150 1.6 3.2 0.00 0.00 0.00 1063.1
20260906130958 -17 129 1.6 3.2 0.00 0.00 0.00 1063.1
20260906130458 -17 144 0.0 1.6 0.00 0.00 0.00 1063.3
20260906125952 -17 127 0.0 3.2 0.00 0.00 0.00 1063.3
20260906125450 -17 151 3.2 3.2 0.00 0.00 0.00 1063.3
20260906124949 -17 156 0.0 1.6 0.00 0.00 0.00 1063.0
20260906124445 -17 128 1.6 1.6 0.00 0.00 0.00 1063.0
20260906123939 -17 140 0.0 1.6 0.00 0.00 0.00 1062.9
20260906123439 -17 136 0.0 1.6 0.00 0.00 0.00 1062.8
20260906122933 -17 136 0.0 1.6 0.00 0.00 0.00 1063.0
20260906122428 -17 133 0.0 1.6 0.00 0.00 0.00 1062.8
20260906121925 -17 139 0.0 0.0 0.00 0.00 0.00 1062.5
20260906121421 -17 139 0.0 0.0 0.00 0.00 0.00 1062.8
20260906120917 -17 124 0.0 0.0 0.00 0.00 0.00 1062.6
20260906120412 -17 140 0.0 0.0 0.00 0.00 0.00 1062.7
20260906115908 -17 145 0.0 0.0 0.00 0.00 0.00 1062.6
20260906115404 -17 137 0.0 0.0 0.00 0.00 0.00 1062.7
20260906114903 -17 139 0.0 0.0 0.00 0.00 0.00 1062.3
20260906114358 -17 141 0.0 0.0 0.00 0.00 0.00 1062.5
20260906113854 -17 141 0.0 0.0 0.00 0.00 0.00 1062.5
20260906113352 -17 135 0.0 1.6 0.00 0.00 0.00 1062.6
20260906112848 -17 139 0.0 0.0 0.00 0.00 0.00 1062.3
20260906112344 -17 138 0.0 0.0 0.00 0.00 0.00 1062.4
20260906111843 -17 136 0.0 1.6 0.00 0.00 0.00 1062.1
20260906111337 -17 125 0.0 1.6 0.00 0.00 0.00 1062.3
20260906110832 -17 136 1.6 1.6 0.00 0.00 0.00 1062.0
20260906110328 -17 135 0.0 1.6 0.00 0.00 0.00 1062.3
20260906105827 -17 133 0.0 1.6 0.00 0.00 0.00 1062.3
20260906105323 -17 138 0.0 0.0 0.00 0.00 0.00 1062.2
20260906104819 -17 135 0.0 0.0 0.00 0.00 0.00 1062.2
20260906104318 -17 140 0.0 0.0 0.00 0.00 0.00 1062.4
20260906103816 -17 138 0.0 0.0 0.00 0.00 0.00 1062.4
20260906103315 -17 140 0.0 0.0 0.00 0.00 0.00 1062.4
20260906102811 -17 140 0.0 0.0 0.00 0.00 0.00 1062.2
20260906102310 -17 131 0.0 1.6 0.00 0.00 0.00 1061.9
20260906101805 -17 138 0.0 1.6 0.00 0.00 0.00 1062.0
20260906101300 -17 141 0.0 0.0 0.00 0.00 0.00 1062.0
20260906100756 -17 142 0.0 0.0 0.00 0.00 0.00 1062.1
20260906100255 -17 146 0.0 0.0 0.00 0.00 0.00 1062.0
20260906095750 -17 139 0.0 0.0 0.00 0.00 0.00 1062.1
20260906095245 -17 140 0.0 0.0 0.00 0.00 0.00 1061.8
20260906094744 -17 149 0.0 1.6 0.00 0.00 0.00 1061.8
20260906094240 -17 140 0.0 0.0 0.00 0.00 0.00 1061.8
20260906093736 -17 140 0.0 0.0 0.00 0.00 0.00 1061.7
20260906093231 -17 138 0.0 0.0 0.00 0.00 0.00 1061.8
20260906092727 -17 133 0.0 0.0 0.00 0.00 0.00 1061.6
20260906092226 -17 143 0.0 0.0 0.00 0.00 0.00 1061.6
20260906091722 -17 141 0.0 0.0 0.00 0.00 0.00 1061.6
20260906091218 -17 138 0.0 0.0 0.00 0.00 0.00 1061.6
20260906090715 -17 135 0.0 0.0 0.00 0.00 0.00 1061.7
20260906090213 -17 139 0.0 0.0 0.00 0.00 0.00 1061.6
20260906085713 -17 140 0.0 0.0 0.00 0.00 0.00 1061.5
20260906085212 -17 139 0.0 0.0 0.00 0.00 0.00 1061.4
20260906084706 -17 133 0.0 0.0 0.00 0.00 0.00 1061.4
20260906084201 -17 141 0.0 0.0 0.00 0.00 0.00 1061.4
20260906083656 -17 146 0.0 0.0 0.00 0.00 0.00 1061.6
20260906083151 -17 140 0.0 0.0 0.00 0.00 0.00 1061.5
20260906082646 -17 140 0.0 1.6 0.00 0.00 0.00 1061.6
20260906082141 -17 140 0.0 0.0 0.00 0.00 0.00 1061.3
20260906081637 -17 140 0.0 0.0 0.00 0.00 0.00 1061.4
20260906081132 -17 145 0.0 0.0 0.00 0.00 0.00 1061.3
20260906080628 -17 151 1.6 1.6 0.00 0.00 0.00 1061.4
20260906080125 -17 146 0.0 0.0 0.00 0.00 0.00 1061.5
20260906075624 -17 138 0.0 0.0 0.00 0.00 0.00 1061.6
20260906075119 -17 138 0.0 0.0 0.00 0.00 0.00 1061.5
20260906074614 -17 141 0.0 0.0 0.00 0.00 0.00 1061.6
20260906074107 -17 141 0.0 0.0 0.00 0.00 0.00 1061.6
20260906073602 -17 140 0.0 0.0 0.00 0.00 0.00 1061.6
20260906073058 -17 141 0.0 0.0 0.00 0.00 0.00 1061.4
20260906072558 -17 138 0.0 0.0 0.00 0.00 0.00 1061.6
20260906072054 -17 139 0.0 0.0 0.00 0.00 0.00 1061.9
20260906071551 -17 135 0.0 0.0 0.00 0.00 0.00 1061.7
20260906071045 -17 138 0.0 0.0 0.00 0.00 0.00 1061.9
20260906070542 -17 142 0.0 0.0 0.00 0.00 0.00 1061.7
20260906070037 -17 145 0.0 0.0 0.00 0.00 0.00 1061.7
20260906065537 -17 145 0.0 1.6 0.00 0.00 0.00 1061.9
20260906065032 -17 146 0.0 1.6 0.00 0.00 0.00 1061.9
20260906064528 -17 140 0.0 0.0 0.00 0.00 0.00 1062.0
20260906064023 -17 138 0.0 0.0 0.00 0.00 0.00 1061.8
20260906063518 -17 138 0.0 0.0 0.00 0.00 0.00 1062.1
20260906063014 -17 138 0.0 0.0 0.00 0.00 0.00 1062.2
20260906062509 -17 139 0.0 0.0 0.00 0.00 0.00 1062.1
20260906062004 -17 138 0.0 0.0 0.00 0.00 0.00 1062.3
20260906061500 -17 141 0.0 0.0 0.00 0.00 0.00 1062.3
20260906060954 -17 138 0.0 0.0 0.00 0.00 0.00 1062.2
20260906060450 -17 147 0.0 0.0 0.00 0.00 0.00 1062.1
20260906055947 -17 143 0.0 0.0 0.00 0.00 0.00 1062.1
20260906055442 -17 140 0.0 0.0 0.00 0.00 0.00 1062.4
20260906054937 -17 139 0.0 0.0 0.00 0.00 0.00 1062.3
20260906054432 -17 142 0.0 0.0 0.00 0.00 0.00 1062.1
20260906053928 -17 138 0.0 0.0 0.00 0.00 0.00 1062.1
20260906053424 -17 140 0.0 1.6 0.00 0.00 0.00 1062.1
20260906052920 -17 148 1.6 1.6 0.00 0.00 0.00 1061.9
20260906052416 -17 138 0.0 0.0 0.00 0.00 0.00 1061.9
20260906051912 -17 138 0.0 0.0 0.00 0.00 0.00 1062.0
20260906051413 -17 137 0.0 0.0 0.00 0.00 0.00 1062.0
20260906050908 -17 136 0.0 0.0 0.00 0.00 0.00 1062.0
20260906050408 -17 127 0.0 1.6 0.00 0.00 0.00 1062.1
20260906045907 -17 141 0.0 1.6 0.00 0.00 0.00 1062.0
20260906045406 -17 138 0.0 0.0 0.00 0.00 0.00 1062.3
20260906044903 -17 141 0.0 0.0 0.00 0.00 0.00 1062.1
20260906044402 -17 155 1.6 3.2 0.00 0.00 0.00 1062.1
20260906043858 -17 159 1.6 3.2 0.00 0.00 0.00 1062.1
20260906043354 -17 143 0.0 0.0 0.00 0.00 0.00 1062.3
20260906042849 -17 138 0.0 0.0 0.00 0.00 0.00 1062.4
20260906042348 -17 138 0.0 0.0 0.00 0.00 0.00 1062.2
20260906041843 -17 140 0.0 0.0 0.00 0.00 0.00 1062.3
20260906041339 -17 140 0.0 0.0 0.00 0.00 0.00 1062.1
20260906040834 -17 140 0.0 0.0 0.00 0.00 0.00 1062.1
20260906040329 -17 137 0.0 0.0 0.00 0.00 0.00 1062.2
20260906035824 -17 136 0.0 0.0 0.00 0.00 0.00 1062.2
20260906035320 -17 141 0.0 1.6 0.00 0.00 0.00 1062.1
20260906034815 -17 141 0.0 1.6 0.00 0.00 0.00 1062.2
20260906034314 -17 140 0.0 1.6 0.00 0.00 0.00 1062.1
20260906033810 -17 142 0.0 0.0 0.00 0.00 0.00 1061.9
20260906033309 -17 143 0.0 0.0 0.00 0.00 0.00 1061.8
20260906032806 -17 139 0.0 0.0 0.00 0.00 0.00 1062.1
20260906032305 -17 134 0.0 0.0 0.00 0.00 0.00 1061.9
20260906031756 -17 141 0.0 0.0 0.00 0.00 0.00 1061.9
20260906031253 -17 139 0.0 0.0 0.00 0.00 0.00 1061.9
20260906030752 -17 138 0.0 0.0 0.00 0.00 0.00 1061.8
20260906030247 -17 134 0.0 0.0 0.00 0.00 0.00 1061.7
20260906025747 -17 138 0.0 0.0 0.00 0.00 0.00 1061.8
20260906025241 -17 136 0.0 0.0 0.00 0.00 0.00 1061.7
20260906024740 -17 136 0.0 0.0 0.00 0.00 0.00 1061.7
20260906024239 -17 128 0.0 1.6 0.00 0.00 0.00 1061.4
20260906023735 -17 138 0.0 0.0 0.00 0.00 0.00 1061.7
20260906023230 -17 136 0.0 0.0 0.00 0.00 0.00 1061.6
20260906022726 -17 136 0.0 0.0 0.00 0.00 0.00 1061.6
20260906022221 -17 136 0.0 0.0 0.00 0.00 0.00 1061.5
20260906021717 -17 136 0.0 0.0 0.00 0.00 0.00 1061.3
20260906021215 -17 140 0.0 0.0 0.00 0.00 0.00 1061.3
20260906020711 -17 138 0.0 0.0 0.00 0.00 0.00 1061.5
20260906020205 -17 136 0.0 0.0 0.00 0.00 0.00 1061.3
20260906015700 -17 133 0.0 0.0 0.00 0.00 0.00 1060.9
20260906015159 -17 140 0.0 0.0 0.00 0.00 0.00 1060.9
20260906014658 -17 139 0.0 0.0 0.00 0.00 0.00 1060.8
20260906014154 -17 138 0.0 0.0 0.00 0.00 0.00 1061.1
20260906013651 -17 138 0.0 0.0 0.00 0.00 0.00 1060.9
20260906013146 -17 131 0.0 1.6 0.00 0.00 0.00 1061.2
20260906012645 -17 129 0.0 0.0 0.00 0.00 0.00 1061.1
20260906012140 -17 142 0.0 0.0 0.00 0.00 0.00 1060.8
20260906011635 -17 141 0.0 0.0 0.00 0.00 0.00 1061.0
20260906011131 -17 148 0.0 0.0 0.00 0.00 0.00 1060.7
20260906010625 -17 141 0.0 0.0 0.00 0.00 0.00 1060.4
20260906010116 -17 147 0.0 1.6 0.00 0.00 0.00 1060.8
20260906005615 -17 156 0.0 1.6 0.00 0.00 0.00 1060.7
20260906005114 -17 155 0.0 1.6 0.00 0.00 0.00 1060.9
20260906004614 -17 147 0.0 1.6 0.00 0.00 0.00 1060.7
20260906004108 -17 143 1.6 3.2 0.00 0.00 0.00 1060.9
20260906003604 -17 158 0.0 3.2 0.00 0.00 0.00 1061.0
20260906003101 -17 157 3.2 8.0 0.00 0.00 0.00 1061.2
20260906002600 -17 190 6.4 9.7 0.00 0.00 0.00 1061.0
20260906002055 -17 204 3.2 4.8 0.00 0.00 0.00 1061.1
20260906001545 -17 153 0.0 1.6 0.00 0.00 0.00 1061.1
20260906001044 -17 159 1.6 4.8 0.00 0.00 0.00 1061.2
20260906000541 -17 149 1.6 3.2 0.00 0.00 0.00 1060.9
20260906000035 -17 137 1.6 3.2 0.00 0.00 0.00 1061.0
20260905235529 -17 138 0.0 3.2 0.00 0.00 0.00 1060.9
20260905235024 -17 176 1.6 14.5 0.00 0.00 0.00 1060.7
20260905234520 -17 127 1.6 4.8 0.00 0.00 0.00 1060.9
20260905234014 -17 174 11.3 20.9 0.00 0.00 0.00 1060.9
20260905233509 -17 143 3.2 16.1 0.00 0.00 0.00 1060.7
20260905233009 -17 119 1.6 3.2 0.00 0.00 0.00 1060.3
20260905232504 -17 107 1.6 3.2 0.00 0.00 0.00 1060.4
20260905232000 -17 99 3.2 4.8 0.00 0.00 0.00 1060.1
20260905231450 -17 78 0.0 1.6 0.00 0.00 0.00 1059.9
20260905230947 -17 355 1.6 3.2 0.00 0.00 0.00 1060.3
20260905230444 -17 127 0.0 1.6 0.00 0.00 0.00 1060.0
20260905225937 -17 141 0.0 1.6 0.00 0.00 0.00 1059.9
20260905225432 -17 101 1.6 1.6 0.00 0.00 0.00 1059.8
20260905224927 -17 97 1.6 3.2 0.00 0.00 0.00 1059.9
20260905224423 -17 121 1.6 1.6 0.00 0.00 0.00 1060.0
20260905223916 -17 114 0.0 3.2 0.00 0.00 0.00 1060.2
20260905223414 -17 114 1.6 1.6 0.00 0.00 0.00 1060.2
20260905222909 -17 136 0.0 3.2 0.00 0.00 0.00 1060.1
20260905222408 -17 118 1.6 1.6 0.00 0.00 0.00 1060.1
20260905221904 -17 121 1.6 3.2 0.00 0.00 0.00 1060.0
20260905221400 -17 101 1.6 3.2 0.00 0.00 0.00 1060.1
20260905220855 -17 137 0.0 3.2 0.00 0.00 0.00 1060.0
20260905220352 -17 102 1.6 3.2 0.00 0.00 0.00 1060.1
20260905215851 -17 81 1.6 4.8 0.00 0.00 0.00 1060.2
20260905215347 -17 98 3.2 3.2 0.00 0.00 0.00 1060.3
20260905214843 -17 126 1.6 4.8 0.00 0.00 0.00 1060.1
20260905214338 -17 121 1.6 4.8 0.00 0.00 0.00 1060.0
20260905213833 -17 71 3.2 3.2 0.00 0.00 0.00 1060.1
20260905213329 -17 115 1.6 3.2 0.00 0.00 0.00 1059.9
20260905212824 -17 92 1.6 8.0 0.00 0.00 0.00 1060.3
20260905212318 -17 148 4.8 9.7 0.00 0.00 0.00 1060.2
20260905211813 -17 320 4.8 8.0 0.00 0.00 0.00 1060.2
20260905211308 -17 306 8.0 9.7 0.00 0.00 0.00 1060.3
20260905210805 -17 116 4.8 8.0 0.00 0.00 0.00 1060.4
20260905210304 -17 129 3.2 4.8 0.00 0.00 0.00 1060.6
20260905205803 -17 151 1.6 4.8 0.00 0.00 0.00 1060.7
20260905205258 -17 106 1.6 4.8 0.00 0.00 0.00 1060.6
20260905204757 -17 218 3.2 3.2 0.00 0.00 0.00 1060.8
20260905204254 -17 171 1.6 3.2 0.00 0.00 0.00 1060.8
20260905203752 -17 192 3.2 4.8 0.00 0.00 0.00 1060.9
20260905203248 -17 207 3.2 3.2 0.00 0.00 0.00 1061.0
20260905202744 -17 338 4.8 8.0 0.00 0.00 0.00 1061.1
20260905202238 -17 216 1.6 9.7 0.00 0.00 0.00 1061.1
20260905201734 -17 96 1.6 3.2 0.00 0.00 0.00 1061.3
20260905201229 -17 345 3.2 4.8 0.00 0.00 0.00 1061.3
20260905200724 -17 78 3.2 4.8 0.00 0.00 0.00 1061.4
20260905200220 -17 318 4.8 8.0 0.00 0.00 0.00 1061.3
20260905195717 -17 68 1.6 8.0 0.00 0.00 0.00 1061.7
20260905195212 -17 89 3.2 4.8 0.00 0.00 0.00 1061.3
20260905194708 -17 84 4.8 4.8 0.00 0.00 0.00 1061.4
20260905194208 -17 149 3.2 8.0 0.00 0.00 0.00 1061.5
20260905193702 -17 61 1.6 3.2 0.00 0.00 0.00 1061.4
20260905193157 -17 156 0.0 4.8 0.00 0.00 0.00 1061.6
20260905192653 -17 15 4.8 8.0 0.00 0.00 0.00 1061.6
20260905192149 -17 115 1.6 1.6 0.00 0.00 0.00 1061.8
20260905191648 -17 141 1.6 3.2 0.00 0.00 0.00 1061.8
20260905191146 -17 122 1.6 3.2 0.00 0.00 0.00 1061.9
20260905190644 -17 157 1.6 3.2 0.00 0.00 0.00 1062.1
20260905190138 -17 171 3.2 8.0 0.00 0.00 0.00 1062.1
20260905185638 -17 30 1.6 8.0 0.00 0.00 0.00 1062.2
20260905185138 -17 14 4.8 8.0 0.00 0.00 0.00 1062.2
20260905184632 -17 269 3.2 3.2 0.00 0.00 0.00 1062.2
20260905184131 -17 241 4.8 8.0 0.00 0.00 0.00 1062.4
20260905183631 -17 97 1.6 4.8 0.00 0.00 0.00 1062.3
20260905183126 -17 114 1.6 3.2 0.00 0.00 0.00 1062.5
20260905182625 -17 265 3.2 4.8 0.00 0.00 0.00 1062.5
20260905182125 -17 193 4.8 8.0 0.00 0.00 0.00 1062.3
20260905181620 -17 144 3.2 8.0 0.00 0.00 0.00 1062.6
20260905181119 -17 286 4.8 8.0 0.00 0.00 0.00 1062.6
20260905180614 -17 34 4.8 8.0 0.00 0.00 0.00 1062.6
20260905180110 -17 154 1.6 3.2 0.00 0.00 0.00 1062.7
20260905175609 -17 83 1.6 4.8 0.00 0.00 0.00 1062.9
20260905175104 -17 128 1.6 4.8 0.00 0.00 0.00 1062.9
20260905174600 -17 328 8.0 9.7 0.00 0.00 0.00 1062.9
20260905174055 -17 199 1.6 3.2 0.00 0.00 0.00 1063.1
20260905173551 -17 152 0.0 3.2 0.00 0.00 0.00 1063.1
20260905173046 -17 155 1.6 1.6 0.00 0.00 0.00 1063.0
20260905172545 -17 127 1.6 3.2 0.00 0.00 0.00 1063.3
20260905172040 -17 10 4.8 4.8 0.00 0.00 0.00 1063.4
20260905171537 -17 62 6.4 8.0 0.00 0.00 0.00 1063.5
20260905171033 -17 87 1.6 3.2 0.00 0.00 0.00 1063.3
20260905170529 -17 118 3.2 4.8 0.00 0.00 0.00 1063.6
20260905170024 -17 355 4.8 9.7 0.00 0.00 0.00 1063.3